AAL2151 KCLT-KIAH

Flight info

Callsign AAL2151
Flight time 2h 22m
Altitude 32000
Route ESTRR5 IPTAY CHOPZ THRSR MERDN AEX GESNR2
Aircraft A321/M-SDE3FGHIRWY/LB1

Departure

Time 2026-05-07 22:15
Airport Charlotte Douglas International Airport (KCLT)

Arrival

Time 2026-05-08 00:38
Airport George Bush Intercontinental Airport (KIAH)
Time Latitude Longitude Altitude Speed Heading
2026-05-07 21:44 35.21795 -80.94289 733 ft 0 kts 70°
2026-05-07 22:04 35.21794 -80.94292 731 ft 3 kts 70°
2026-05-07 22:05 35.21783 -80.94322 732 ft 4 kts 62°
2026-05-07 22:05 35.21773 -80.94349 732 ft 1 kts 70°
2026-05-07 22:07 35.21781 -80.94350 732 ft 2 kts 342°
2026-05-07 22:08 35.21756 -80.94379 732 ft 9 kts 187°
2026-05-07 22:08 35.21686 -80.94372 732 ft 12 kts 179°
2026-05-07 22:08 35.21588 -80.94430 732 ft 21 kts 243°
2026-05-07 22:08 35.21567 -80.94595 732 ft 17 kts 265°
2026-05-07 22:09 35.21560 -80.94701 732 ft 8 kts 267°
2026-05-07 22:09 35.21558 -80.94766 732 ft 7 kts 268°
2026-05-07 22:09 35.21556 -80.94821 732 ft 6 kts 267°
2026-05-07 22:09 35.21554 -80.94850 732 ft 0 kts 265°
2026-05-07 22:10 35.21553 -80.94866 732 ft 5 kts 265°
2026-05-07 22:11 35.21581 -80.94937 733 ft 14 kts 322°
2026-05-07 22:11 35.21575 -80.95016 733 ft 9 kts 201°
2026-05-07 22:11 35.21477 -80.95010 733 ft 20 kts 176°
2026-05-07 22:11 35.21305 -80.94994 733 ft 26 kts 176°
2026-05-07 22:12 35.21126 -80.94979 732 ft 25 kts 176°
2026-05-07 22:12 35.20946 -80.94964 723 ft 28 kts 175°
2026-05-07 22:12 35.20768 -80.94949 732 ft 23 kts 176°
2026-05-07 22:12 35.20617 -80.94935 733 ft 21 kts 175°
2026-05-07 22:13 35.20460 -80.94921 733 ft 28 kts 176°
2026-05-07 22:13 35.20262 -80.94904 731 ft 28 kts 176°
2026-05-07 22:13 35.20096 -80.94890 733 ft 15 kts 175°
2026-05-07 22:13 35.20034 -80.94902 733 ft 7 kts 226°
2026-05-07 22:14 35.20018 -80.94949 732 ft 5 kts 264°
2026-05-07 22:14 35.20013 -80.95004 734 ft 11 kts 264°
2026-05-07 22:14 35.20046 -80.95087 736 ft 11 kts 342°
2026-05-07 22:14 35.20153 -80.95096 737 ft 34 kts 357°
2026-05-07 22:15 35.20648 -80.95147 739 ft 106 kts 356°
2026-05-07 22:15 35.21583 -80.95221 739 ft 160 kts 355°
2026-05-07 22:15 35.22756 -80.95322 1216 ft 168 kts 356°
2026-05-07 22:15 35.23904 -80.95369 1945 ft 163 kts 355°
2026-05-07 22:16 35.25028 -80.95523 2557 ft 167 kts 337°
2026-05-07 22:16 35.26096 -80.96278 2848 ft 187 kts 324°
2026-05-07 22:16 35.27187 -80.97271 2988 ft 203 kts 322°
2026-05-07 22:16 35.28346 -80.98352 3220 ft 212 kts 322°
2026-05-07 22:17 35.29535 -80.99471 3469 ft 223 kts 322°
2026-05-07 22:17 35.30834 -81.00687 3607 ft 246 kts 322°
2026-05-07 22:17 35.32192 -81.02029 4149 ft 254 kts 311°
2026-05-07 22:17 35.33095 -81.03892 4773 ft 258 kts 285°
2026-05-07 22:18 35.33208 -81.06072 5441 ft 260 kts 259°
2026-05-07 22:18 35.31362 -81.09861 6867 ft 262 kts 234°
2026-05-07 22:18 35.30246 -81.11620 7585 ft 262 kts 234°
2026-05-07 22:19 35.29135 -81.13382 8277 ft 262 kts 235°
2026-05-07 22:19 35.28022 -81.15153 8976 ft 263 kts 235°
2026-05-07 22:19 35.26916 -81.16910 9664 ft 263 kts 236°
2026-05-07 22:19 35.25797 -81.18687 10219 ft 268 kts 236°
2026-05-07 22:20 35.24622 -81.20566 10341 ft 287 kts 236°
2026-05-07 22:20 35.23366 -81.22574 10463 ft 306 kts 236°
2026-05-07 22:20 35.22032 -81.24697 10588 ft 323 kts 236°
2026-05-07 22:20 35.20631 -81.26925 10749 ft 337 kts 236°
2026-05-07 22:21 35.19189 -81.29212 11232 ft 341 kts 236°
2026-05-07 22:21 35.17731 -81.31513 11717 ft 343 kts 236°
2026-05-07 22:21 35.16259 -81.33830 12219 ft 346 kts 237°
2026-05-07 22:21 35.14785 -81.36155 12746 ft 347 kts 237°
2026-05-07 22:22 35.13302 -81.38499 13231 ft 350 kts 237°
2026-05-07 22:22 35.11805 -81.40862 13732 ft 352 kts 237°
2026-05-07 22:22 35.10810 -81.42429 14073 ft 351 kts 238°
2026-05-07 22:22 35.09317 -81.44778 14585 ft 350 kts 238°
2026-05-07 22:23 35.07826 -81.47125 15097 ft 348 kts 238°
2026-05-07 22:23 35.06347 -81.49456 15600 ft 346 kts 239°
2026-05-07 22:23 35.04874 -81.51777 16094 ft 345 kts 239°
2026-05-07 22:23 35.02930 -81.54837 16718 ft 343 kts 239°
2026-05-07 22:24 35.01942 -81.56389 17051 ft 342 kts 239°
2026-05-07 22:24 35.00528 -81.58682 17512 ft 337 kts 244°
2026-05-07 22:24 34.99472 -81.61187 17981 ft 329 kts 253°
2026-05-07 22:24 34.98635 -81.63786 18377 ft 328 kts 253°
2026-05-07 22:25 34.97796 -81.66371 18732 ft 329 kts 253°
2026-05-07 22:25 34.96949 -81.68963 19073 ft 330 kts 253°
2026-05-07 22:25 34.96094 -81.71568 19367 ft 331 kts 253°
2026-05-07 22:25 34.95235 -81.74175 19688 ft 332 kts 252°
2026-05-07 22:26 34.94376 -81.76790 19991 ft 334 kts 252°
2026-05-07 22:26 34.93510 -81.79425 20323 ft 335 kts 252°
2026-05-07 22:26 34.92436 -81.81969 20630 ft 343 kts 243°
2026-05-07 22:26 34.91087 -81.84388 20947 ft 346 kts 243°
2026-05-07 22:27 34.89734 -81.86817 21251 ft 347 kts 243°
2026-05-07 22:27 34.88395 -81.89228 21546 ft 349 kts 243°
2026-05-07 22:27 34.87013 -81.91713 21850 ft 351 kts 243°
2026-05-07 22:27 34.85637 -81.94175 22145 ft 352 kts 242°
2026-05-07 22:28 34.84257 -81.96640 22434 ft 354 kts 242°
2026-05-07 22:28 34.82879 -81.99104 22700 ft 356 kts 242°
2026-05-07 22:28 34.81487 -82.01595 22971 ft 357 kts 242°
2026-05-07 22:28 34.80084 -82.04103 23246 ft 359 kts 242°
2026-05-07 22:29 34.78680 -82.06612 23488 ft 360 kts 242°
2026-05-07 22:29 34.77268 -82.09133 23727 ft 361 kts 242°
2026-05-07 22:29 34.75850 -82.11663 23974 ft 362 kts 242°
2026-05-07 22:29 34.74426 -82.14200 24215 ft 363 kts 242°
2026-05-07 22:30 34.72999 -82.16739 24389 ft 365 kts 242°
2026-05-07 22:30 34.71570 -82.19285 24618 ft 366 kts 242°
2026-05-07 22:30 34.70131 -82.21847 24850 ft 367 kts 242°
2026-05-07 22:30 34.68687 -82.24418 25088 ft 369 kts 242°
2026-05-07 22:31 34.67242 -82.26991 25331 ft 370 kts 242°
2026-05-07 22:31 34.65787 -82.29579 25570 ft 371 kts 243°
2026-05-07 22:31 34.64332 -82.32166 25781 ft 372 kts 243°
2026-05-07 22:31 34.62864 -82.34770 26003 ft 373 kts 243°
2026-05-07 22:32 34.61396 -82.37370 26225 ft 374 kts 243°
2026-05-07 22:32 34.59919 -82.39978 26437 ft 375 kts 242°
2026-05-07 22:32 34.58444 -82.42581 26701 ft 374 kts 242°
2026-05-07 22:32 34.56965 -82.45187 26925 ft 374 kts 242°
2026-05-07 22:33 34.55489 -82.47791 27126 ft 375 kts 243°
2026-05-07 22:33 34.54013 -82.50401 27304 ft 376 kts 243°
2026-05-07 22:33 34.52533 -82.53016 27461 ft 376 kts 243°
2026-05-07 22:33 34.51053 -82.55626 27686 ft 375 kts 243°
2026-05-07 22:34 34.49576 -82.58227 27782 ft 376 kts 243°
2026-05-07 22:34 34.48086 -82.60850 27912 ft 378 kts 243°
2026-05-07 22:34 34.46595 -82.63475 28060 ft 378 kts 243°
2026-05-07 22:34 34.45100 -82.66105 28229 ft 378 kts 243°
2026-05-07 22:35 34.43607 -82.68728 28431 ft 378 kts 243°
2026-05-07 22:35 34.42117 -82.71342 28645 ft 377 kts 243°
2026-05-07 22:35 34.40627 -82.73953 28864 ft 376 kts 243°
2026-05-07 22:35 34.39139 -82.76553 29072 ft 375 kts 243°
2026-05-07 22:36 34.37653 -82.79148 29286 ft 375 kts 243°
2026-05-07 22:36 34.36173 -82.81739 29491 ft 373 kts 243°
2026-05-07 22:36 34.34700 -82.84318 29708 ft 372 kts 243°
2026-05-07 22:36 34.33226 -82.86894 29915 ft 372 kts 243°
2026-05-07 22:37 34.31751 -82.89461 30093 ft 371 kts 243°
2026-05-07 22:37 34.30280 -82.92019 30257 ft 370 kts 243°
2026-05-07 22:37 34.28811 -82.94576 30425 ft 369 kts 243°
2026-05-07 22:37 34.27350 -82.97122 30544 ft 369 kts 243°
2026-05-07 22:38 34.25887 -82.99672 30670 ft 369 kts 243°
2026-05-07 22:38 34.24417 -83.02221 30806 ft 370 kts 243°
2026-05-07 22:38 34.22940 -83.04774 30961 ft 369 kts 243°
2026-05-07 22:38 34.21470 -83.07313 31139 ft 369 kts 243°
2026-05-07 22:39 34.20002 -83.09848 31306 ft 368 kts 242°
2026-05-07 22:39 34.18537 -83.12382 31478 ft 367 kts 242°
2026-05-07 22:39 34.17096 -83.14880 31655 ft 367 kts 242°
2026-05-07 22:39 34.15638 -83.17403 31848 ft 366 kts 242°
2026-05-07 22:40 34.14185 -83.19917 31922 ft 363 kts 242°
2026-05-07 22:40 34.11312 -83.24873 31944 ft 359 kts 242°
2026-05-07 22:41 34.08454 -83.29804 31948 ft 359 kts 242°
2026-05-07 22:41 34.05594 -83.34737 31949 ft 358 kts 242°
2026-05-07 22:42 34.02723 -83.39674 31942 ft 360 kts 242°
2026-05-07 22:42 33.99821 -83.44659 31966 ft 364 kts 242°
2026-05-07 22:43 33.96900 -83.49654 31981 ft 365 kts 242°
2026-05-07 22:43 33.93979 -83.54652 32005 ft 364 kts 242°
2026-05-07 22:44 33.91065 -83.59639 32006 ft 364 kts 242°
2026-05-07 22:44 33.88146 -83.64621 32003 ft 363 kts 242°
2026-05-07 22:45 33.85461 -83.69673 31995 ft 356 kts 251°
2026-05-07 22:45 33.83756 -83.75232 31986 ft 354 kts 253°
2026-05-07 22:46 33.82076 -83.80793 31978 ft 354 kts 253°
2026-05-07 22:46 33.80389 -83.86352 31982 ft 354 kts 253°
2026-05-07 22:47 33.78706 -83.91916 31941 ft 355 kts 253°
2026-05-07 22:47 33.77008 -83.97519 31945 ft 357 kts 253°
2026-05-07 22:48 33.75301 -84.03136 31946 ft 358 kts 253°
2026-05-07 22:48 33.73578 -84.08771 31944 ft 359 kts 253°
2026-05-07 22:49 33.71854 -84.14403 31942 ft 359 kts 253°
2026-05-07 22:49 33.70141 -84.20005 31947 ft 360 kts 253°
2026-05-07 22:50 33.68404 -84.25684 31964 ft 360 kts 253°
2026-05-07 22:50 33.66677 -84.31316 31983 ft 360 kts 253°
2026-05-07 22:51 33.64944 -84.36951 31988 ft 360 kts 253°
2026-05-07 22:51 33.63226 -84.42539 32000 ft 359 kts 253°
2026-05-07 22:52 33.61583 -84.48199 32005 ft 359 kts 255°
2026-05-07 22:52 33.60109 -84.53916 32003 ft 358 kts 255°
2026-05-07 22:53 33.58637 -84.59632 31997 ft 358 kts 255°
2026-05-07 22:53 33.57128 -84.65335 31976 ft 359 kts 255°
2026-05-07 22:54 33.55602 -84.71035 31975 ft 359 kts 255°
2026-05-07 22:54 33.54072 -84.76729 31969 ft 358 kts 255°
2026-05-07 22:55 33.52556 -84.82374 31970 ft 358 kts 255°
2026-05-07 22:55 33.51027 -84.88057 31979 ft 358 kts 255°
2026-05-07 22:56 33.49493 -84.93729 32024 ft 358 kts 255°
2026-05-07 22:56 33.47960 -84.99401 32035 ft 358 kts 255°
2026-05-07 22:57 33.46430 -85.05073 32042 ft 357 kts 254°
2026-05-07 22:57 33.44900 -85.10728 32034 ft 357 kts 255°
2026-05-07 22:58 33.43364 -85.16392 32042 ft 357 kts 254°
2026-05-07 22:58 33.41818 -85.22047 32030 ft 357 kts 254°
2026-05-07 22:59 33.40276 -85.27695 32020 ft 357 kts 255°
2026-05-07 22:59 33.38746 -85.33317 31995 ft 357 kts 254°
2026-05-07 23:00 33.37187 -85.39000 31995 ft 357 kts 254°
2026-05-07 23:00 33.35647 -85.44606 31997 ft 357 kts 254°
2026-05-07 23:01 33.34101 -85.50253 31999 ft 357 kts 254°
2026-05-07 23:01 33.32541 -85.55887 31999 ft 357 kts 254°
2026-05-07 23:02 33.30984 -85.61531 32003 ft 357 kts 254°
2026-05-07 23:02 33.29420 -85.67185 31998 ft 357 kts 254°
2026-05-07 23:03 33.27861 -85.72816 31997 ft 357 kts 254°
2026-05-07 23:03 33.26292 -85.78458 32000 ft 357 kts 254°
2026-05-07 23:04 33.24724 -85.84088 31995 ft 357 kts 254°
2026-05-07 23:04 33.23419 -85.88770 31999 ft 357 kts 254°
2026-05-07 23:05 33.21844 -85.94405 31999 ft 357 kts 254°
2026-05-07 23:05 33.20268 -86.00042 31995 ft 357 kts 254°
2026-05-07 23:06 33.18687 -86.05668 32001 ft 357 kts 254°
2026-05-07 23:06 33.17102 -86.11293 32001 ft 358 kts 254°
2026-05-07 23:07 33.15514 -86.16917 31992 ft 358 kts 254°
2026-05-07 23:07 33.13933 -86.22538 32024 ft 358 kts 254°
2026-05-07 23:08 33.12350 -86.28165 32063 ft 357 kts 254°
2026-05-07 23:08 33.10756 -86.33791 32058 ft 358 kts 254°
2026-05-07 23:09 33.09158 -86.39410 32017 ft 358 kts 254°
2026-05-07 23:09 33.07559 -86.45034 32012 ft 359 kts 254°
2026-05-07 23:10 33.05952 -86.50667 32010 ft 359 kts 254°
2026-05-07 23:10 33.04343 -86.56308 31987 ft 359 kts 254°
2026-05-07 23:11 33.02737 -86.61947 31990 ft 359 kts 254°
2026-05-07 23:11 33.01123 -86.67592 31985 ft 360 kts 253°
2026-05-07 23:12 32.99503 -86.73233 31976 ft 360 kts 254°
2026-05-07 23:12 32.97875 -86.78881 31982 ft 360 kts 253°
2026-05-07 23:13 32.96252 -86.84499 31957 ft 360 kts 253°
2026-05-07 23:13 32.94624 -86.90132 31958 ft 360 kts 253°
2026-05-07 23:14 32.92994 -86.95759 31956 ft 359 kts 253°
2026-05-07 23:14 32.91365 -87.01386 31959 ft 360 kts 253°
2026-05-07 23:15 32.89737 -87.07020 31959 ft 362 kts 253°
2026-05-07 23:15 32.88071 -87.12751 31974 ft 370 kts 253°
2026-05-07 23:16 32.86365 -87.18588 31978 ft 374 kts 253°
2026-05-07 23:16 32.84662 -87.24418 31976 ft 376 kts 253°
2026-05-07 23:17 32.82946 -87.30293 31988 ft 376 kts 253°
2026-05-07 23:17 32.81219 -87.36163 31986 ft 376 kts 253°
2026-05-07 23:18 32.79490 -87.42034 32001 ft 376 kts 253°
2026-05-07 23:18 32.77761 -87.47903 32003 ft 376 kts 253°
2026-05-07 23:19 32.76033 -87.53783 32005 ft 377 kts 253°
2026-05-07 23:19 32.74309 -87.59626 32016 ft 377 kts 253°
2026-05-07 23:20 32.72567 -87.65497 32016 ft 377 kts 253°
2026-05-07 23:20 32.70823 -87.71357 32041 ft 377 kts 253°
2026-05-07 23:21 32.69082 -87.77226 32036 ft 377 kts 253°
2026-05-07 23:21 32.67334 -87.83090 32033 ft 377 kts 253°
2026-05-07 23:22 32.65581 -87.88959 32045 ft 377 kts 253°
2026-05-07 23:22 32.63824 -87.94823 32045 ft 377 kts 253°
2026-05-07 23:23 32.62072 -88.00683 32044 ft 377 kts 253°
2026-05-07 23:23 32.60318 -88.06546 32001 ft 377 kts 252°
2026-05-07 23:24 32.58555 -88.12416 32014 ft 378 kts 252°
2026-05-07 23:24 32.56775 -88.18295 32032 ft 379 kts 252°
2026-05-07 23:25 32.54989 -88.24177 32037 ft 379 kts 252°
2026-05-07 23:25 32.53209 -88.30065 32043 ft 379 kts 252°
2026-05-07 23:26 32.51442 -88.35919 32053 ft 380 kts 252°
2026-05-07 23:26 32.49661 -88.41807 32058 ft 380 kts 252°
2026-05-07 23:27 32.46970 -88.50630 32062 ft 380 kts 252°
2026-05-07 23:27 32.45167 -88.56517 32063 ft 380 kts 252°
2026-05-07 23:28 32.43364 -88.62406 32064 ft 380 kts 252°
2026-05-07 23:28 32.41564 -88.68294 32051 ft 380 kts 252°
2026-05-07 23:29 32.39764 -88.74179 32047 ft 380 kts 252°
2026-05-07 23:29 32.37952 -88.80063 32055 ft 380 kts 252°
2026-05-07 23:30 32.36204 -88.85963 32044 ft 380 kts 253°
2026-05-07 23:30 32.34544 -88.91847 32045 ft 380 kts 253°
2026-05-07 23:31 32.32860 -88.97798 32019 ft 381 kts 253°
2026-05-07 23:31 32.31162 -89.03744 32023 ft 381 kts 253°
2026-05-07 23:32 32.29469 -89.09618 32023 ft 382 kts 253°
2026-05-07 23:32 32.27755 -89.15559 32038 ft 382 kts 253°
2026-05-07 23:33 32.26042 -89.21501 32041 ft 382 kts 253°
2026-05-07 23:33 32.24322 -89.27441 32049 ft 382 kts 253°
2026-05-07 23:34 32.22597 -89.33375 32049 ft 382 kts 253°
2026-05-07 23:34 32.20873 -89.39306 32053 ft 382 kts 253°
2026-05-07 23:35 32.19153 -89.45200 32056 ft 382 kts 253°
2026-05-07 23:35 32.17417 -89.51135 32061 ft 382 kts 253°
2026-05-07 23:36 32.15679 -89.57063 32062 ft 382 kts 253°
2026-05-07 23:36 32.13947 -89.62990 32063 ft 382 kts 253°
2026-05-07 23:37 32.12212 -89.68927 32065 ft 382 kts 253°
2026-05-07 23:37 32.10467 -89.74852 32068 ft 382 kts 253°
2026-05-07 23:38 32.08718 -89.80766 32065 ft 382 kts 253°
2026-05-07 23:38 32.06972 -89.86684 32033 ft 382 kts 252°
2026-05-07 23:39 32.05219 -89.92616 32039 ft 383 kts 252°
2026-05-07 23:39 32.03454 -89.98545 32044 ft 383 kts 252°
2026-05-07 23:40 32.01689 -90.04479 32058 ft 384 kts 252°
2026-05-07 23:40 31.99921 -90.10418 32061 ft 384 kts 252°
2026-05-07 23:41 31.98161 -90.16341 32058 ft 384 kts 252°
2026-05-07 23:41 31.96399 -90.22227 32061 ft 383 kts 252°
2026-05-07 23:42 31.94624 -90.28151 32063 ft 383 kts 252°
2026-05-07 23:42 31.92850 -90.34078 32060 ft 383 kts 252°
2026-05-07 23:43 31.91071 -90.40004 32060 ft 384 kts 252°
2026-05-07 23:43 31.89285 -90.45927 32068 ft 384 kts 252°
2026-05-07 23:44 31.87496 -90.51844 32063 ft 384 kts 252°
2026-05-07 23:44 31.85705 -90.57756 32068 ft 384 kts 252°
2026-05-07 23:45 31.83913 -90.63664 32075 ft 384 kts 252°
2026-05-07 23:45 31.82119 -90.69573 32077 ft 384 kts 252°
2026-05-07 23:46 31.80334 -90.75447 32073 ft 384 kts 252°
2026-05-07 23:46 31.78536 -90.81369 32045 ft 385 kts 251°
2026-05-07 23:47 31.76727 -90.87303 32043 ft 387 kts 251°
2026-05-07 23:47 31.75202 -90.92288 32051 ft 388 kts 251°
2026-05-07 23:48 31.73369 -90.98223 32051 ft 389 kts 251°
2026-05-07 23:48 31.71537 -91.04198 32051 ft 389 kts 251°
2026-05-07 23:49 31.69699 -91.10182 32060 ft 389 kts 251°
2026-05-07 23:49 31.67858 -91.16171 32075 ft 389 kts 251°
2026-05-07 23:50 31.66015 -91.22144 32080 ft 389 kts 251°
2026-05-07 23:50 31.64168 -91.28115 32081 ft 388 kts 251°
2026-05-07 23:51 31.62327 -91.34065 32084 ft 388 kts 251°
2026-05-07 23:51 31.60490 -91.40011 32085 ft 388 kts 251°
2026-05-07 23:52 31.58651 -91.45917 32080 ft 388 kts 251°
2026-05-07 23:52 31.56796 -91.51850 32078 ft 388 kts 251°
2026-05-07 23:53 31.54941 -91.57790 32075 ft 388 kts 251°
2026-05-07 23:53 31.53084 -91.63724 32070 ft 388 kts 251°
2026-05-07 23:54 31.51224 -91.69662 32065 ft 388 kts 251°
2026-05-07 23:54 31.49680 -91.74589 32032 ft 389 kts 250°
2026-05-07 23:55 31.47803 -91.80554 32030 ft 390 kts 250°
2026-05-07 23:55 31.45923 -91.86531 32030 ft 391 kts 250°
2026-05-07 23:56 31.44032 -91.92510 32034 ft 392 kts 250°
2026-05-07 23:56 31.42259 -91.98103 32044 ft 393 kts 250°
2026-05-07 23:57 31.40363 -92.04079 32045 ft 393 kts 250°
2026-05-07 23:57 31.38463 -92.10076 32042 ft 393 kts 250°
2026-05-07 23:58 31.36558 -92.16085 32050 ft 393 kts 250°
2026-05-07 23:58 31.34650 -92.22087 31871 ft 394 kts 250°
2026-05-07 23:59 31.33692 -92.25089 31686 ft 394 kts 250°
2026-05-07 23:59 31.32730 -92.28093 31494 ft 395 kts 250°
2026-05-07 23:59 31.31766 -92.31099 31320 ft 395 kts 250°
2026-05-07 23:59 31.30802 -92.34109 31118 ft 396 kts 250°
2026-05-08 00:00 31.29835 -92.37122 30929 ft 396 kts 250°
2026-05-08 00:00 31.28862 -92.40145 30742 ft 397 kts 250°
2026-05-08 00:00 31.27889 -92.43173 30556 ft 398 kts 250°
2026-05-08 00:00 31.26915 -92.46215 30371 ft 399 kts 250°
2026-05-08 00:01 31.25941 -92.49258 30186 ft 401 kts 250°
2026-05-08 00:01 31.24946 -92.52309 29990 ft 402 kts 249°
2026-05-08 00:01 31.23904 -92.55344 29761 ft 403 kts 249°
2026-05-08 00:01 31.22834 -92.58375 29558 ft 404 kts 248°
2026-05-08 00:02 31.21748 -92.61415 29321 ft 405 kts 248°
2026-05-08 00:02 31.20657 -92.64462 29088 ft 408 kts 249°
2026-05-08 00:02 31.19562 -92.67532 28885 ft 410 kts 249°
2026-05-08 00:02 31.18482 -92.70579 28681 ft 412 kts 249°
2026-05-08 00:03 31.17390 -92.73676 28487 ft 413 kts 249°
2026-05-08 00:03 31.16298 -92.76786 28275 ft 413 kts 249°
2026-05-08 00:03 31.15205 -92.79897 28083 ft 414 kts 249°
2026-05-08 00:03 31.14104 -92.83022 27884 ft 415 kts 249°
2026-05-08 00:04 31.13017 -92.86097 27675 ft 416 kts 249°
2026-05-08 00:04 31.11919 -92.89196 27471 ft 416 kts 249°
2026-05-08 00:04 31.10798 -92.92360 27258 ft 417 kts 249°
2026-05-08 00:04 31.09702 -92.95457 27066 ft 418 kts 249°
2026-05-08 00:05 31.08591 -92.98592 26849 ft 419 kts 249°
2026-05-08 00:05 31.07478 -93.01734 26657 ft 419 kts 249°
2026-05-08 00:05 31.06365 -93.04878 26459 ft 420 kts 249°
2026-05-08 00:05 31.05244 -93.08039 26258 ft 421 kts 249°
2026-05-08 00:06 31.04123 -93.11190 26067 ft 422 kts 249°
2026-05-08 00:06 31.02996 -93.14355 25878 ft 423 kts 249°
2026-05-08 00:06 31.01865 -93.17527 25689 ft 423 kts 249°
2026-05-08 00:06 31.00730 -93.20698 25498 ft 424 kts 249°
2026-05-08 00:07 30.99593 -93.23870 25317 ft 425 kts 249°
2026-05-08 00:07 30.98447 -93.27065 25133 ft 425 kts 249°
2026-05-08 00:07 30.97307 -93.30242 24948 ft 425 kts 249°
2026-05-08 00:07 30.96170 -93.33417 24765 ft 424 kts 249°
2026-05-08 00:08 30.95041 -93.36577 24581 ft 423 kts 249°
2026-05-08 00:08 30.93908 -93.39743 24401 ft 422 kts 249°
2026-05-08 00:08 30.92779 -93.42893 24241 ft 421 kts 249°
2026-05-08 00:08 30.91647 -93.46042 24074 ft 420 kts 249°
2026-05-08 00:09 30.90516 -93.49177 24025 ft 420 kts 249°
2026-05-08 00:09 30.89380 -93.52320 24047 ft 421 kts 249°
2026-05-08 00:09 30.88257 -93.55435 24046 ft 421 kts 249°
2026-05-08 00:09 30.87123 -93.58589 24044 ft 421 kts 249°
2026-05-08 00:10 30.85991 -93.61738 24042 ft 422 kts 249°
2026-05-08 00:10 30.84857 -93.64879 24039 ft 421 kts 249°
2026-05-08 00:10 30.83716 -93.68033 24038 ft 421 kts 249°
2026-05-08 00:10 30.82576 -93.71175 24036 ft 421 kts 249°
2026-05-08 00:11 30.81435 -93.74316 24033 ft 421 kts 249°
2026-05-08 00:11 30.80292 -93.77457 24030 ft 422 kts 248°
2026-05-08 00:11 30.79149 -93.80598 24030 ft 422 kts 249°
2026-05-08 00:11 30.78009 -93.83738 24028 ft 422 kts 249°
2026-05-08 00:12 30.76868 -93.86884 24027 ft 421 kts 249°
2026-05-08 00:12 30.75727 -93.90030 23867 ft 421 kts 249°
2026-05-08 00:12 30.74606 -93.93115 23629 ft 406 kts 249°
2026-05-08 00:12 30.73518 -93.96100 23376 ft 398 kts 248°
2026-05-08 00:13 30.72454 -93.99011 23112 ft 395 kts 248°
2026-05-08 00:13 30.71385 -94.01939 22850 ft 392 kts 248°
2026-05-08 00:13 30.70327 -94.04843 22582 ft 385 kts 248°
2026-05-08 00:13 30.69303 -94.07652 22354 ft 369 kts 248°
2026-05-08 00:14 30.68320 -94.10339 22107 ft 353 kts 248°
2026-05-08 00:14 30.67378 -94.12903 22015 ft 338 kts 248°
2026-05-08 00:14 30.66462 -94.15397 22026 ft 335 kts 248°
2026-05-08 00:14 30.65552 -94.17894 22030 ft 338 kts 249°
2026-05-08 00:15 30.64622 -94.20440 22010 ft 343 kts 248°
2026-05-08 00:15 30.63694 -94.22965 21541 ft 335 kts 248°
2026-05-08 00:15 30.62787 -94.25435 21072 ft 329 kts 248°
2026-05-08 00:15 30.61892 -94.27870 20612 ft 326 kts 248°
2026-05-08 00:16 30.61007 -94.30281 20152 ft 323 kts 248°
2026-05-08 00:16 30.60129 -94.32666 19713 ft 320 kts 248°
2026-05-08 00:16 30.59258 -94.35031 19272 ft 318 kts 247°
2026-05-08 00:16 30.58392 -94.37382 18838 ft 315 kts 247°
2026-05-08 00:17 30.57533 -94.39712 18410 ft 313 kts 247°
2026-05-08 00:17 30.56681 -94.42023 17931 ft 311 kts 247°
2026-05-08 00:17 30.55829 -94.44331 17447 ft 311 kts 247°
2026-05-08 00:17 30.54976 -94.46636 17082 ft 311 kts 246°
2026-05-08 00:18 30.54121 -94.48947 17019 ft 312 kts 246°
2026-05-08 00:18 30.53077 -94.51161 16888 ft 316 kts 237°
2026-05-08 00:18 30.51734 -94.53176 16433 ft 315 kts 233°
2026-05-08 00:18 30.50373 -94.55161 15975 ft 315 kts 233°
2026-05-08 00:19 30.49009 -94.57147 15514 ft 315 kts 233°
2026-05-08 00:19 30.47662 -94.59113 15066 ft 314 kts 233°
2026-05-08 00:19 30.46316 -94.61079 14639 ft 314 kts 233°
2026-05-08 00:19 30.44923 -94.63111 14178 ft 315 kts 232°
2026-05-08 00:20 30.43580 -94.65070 13743 ft 315 kts 232°
2026-05-08 00:20 30.42217 -94.67063 13249 ft 315 kts 232°
2026-05-08 00:20 30.40842 -94.69074 13003 ft 314 kts 233°
2026-05-08 00:20 30.39488 -94.71026 13002 ft 315 kts 232°
2026-05-08 00:21 30.38066 -94.72959 13004 ft 316 kts 230°
2026-05-08 00:21 30.36605 -94.74879 12983 ft 317 kts 230°
2026-05-08 00:21 30.35148 -94.76774 12391 ft 313 kts 230°
2026-05-08 00:21 30.33700 -94.78654 11819 ft 311 kts 230°
2026-05-08 00:22 30.32303 -94.80471 11232 ft 294 kts 231°
2026-05-08 00:22 30.30975 -94.82206 10650 ft 282 kts 231°
2026-05-08 00:22 30.29680 -94.83908 10153 ft 281 kts 231°
2026-05-08 00:22 30.28386 -94.85618 10004 ft 284 kts 231°
2026-05-08 00:23 30.27097 -94.87370 9879 ft 287 kts 232°
2026-05-08 00:23 30.25830 -94.89135 9672 ft 285 kts 232°
2026-05-08 00:23 30.24566 -94.90906 9475 ft 285 kts 232°
2026-05-08 00:23 30.23305 -94.92670 9276 ft 285 kts 232°
2026-05-08 00:24 30.22057 -94.94410 9075 ft 284 kts 232°
2026-05-08 00:24 30.20793 -94.96164 8873 ft 283 kts 231°
2026-05-08 00:24 30.19532 -94.97909 8676 ft 282 kts 230°
2026-05-08 00:24 30.18272 -94.99652 8473 ft 282 kts 231°
2026-05-08 00:25 30.17015 -95.01390 8278 ft 281 kts 231°
2026-05-08 00:25 30.15761 -95.03123 8103 ft 281 kts 231°
2026-05-08 00:25 30.14509 -95.04861 7987 ft 281 kts 231°
2026-05-08 00:25 30.13308 -95.06621 7941 ft 274 kts 238°
2026-05-08 00:26 30.12521 -95.08590 7849 ft 269 kts 254°
2026-05-08 00:26 30.12151 -95.10678 7755 ft 269 kts 260°
2026-05-08 00:26 30.11818 -95.12808 7658 ft 270 kts 259°
2026-05-08 00:26 30.11481 -95.14943 7560 ft 270 kts 259°
2026-05-08 00:27 30.11139 -95.17078 7469 ft 269 kts 259°
2026-05-08 00:27 30.10799 -95.19207 7375 ft 269 kts 259°
2026-05-08 00:27 30.10462 -95.21337 7279 ft 269 kts 259°
2026-05-08 00:27 30.10125 -95.23467 7186 ft 270 kts 259°
2026-05-08 00:28 30.09790 -95.25594 7074 ft 270 kts 259°
2026-05-08 00:28 30.09450 -95.27727 7000 ft 269 kts 259°
2026-05-08 00:28 30.09234 -95.29873 6904 ft 270 kts 270°
2026-05-08 00:28 30.09243 -95.32044 6787 ft 270 kts 270°
2026-05-08 00:29 30.09248 -95.33476 6716 ft 270 kts 269°
2026-05-08 00:29 30.09254 -95.35655 6600 ft 272 kts 269°
2026-05-08 00:29 30.09257 -95.37838 6485 ft 272 kts 269°
2026-05-08 00:29 30.09258 -95.40022 6362 ft 271 kts 269°
2026-05-08 00:30 30.09260 -95.42154 6246 ft 260 kts 270°
2026-05-08 00:30 30.09262 -95.44194 6133 ft 249 kts 269°
2026-05-08 00:30 30.09260 -95.46182 6019 ft 247 kts 269°
2026-05-08 00:30 30.09260 -95.48164 5731 ft 243 kts 269°
2026-05-08 00:31 30.09264 -95.50092 5412 ft 238 kts 268°
2026-05-08 00:31 30.09270 -95.51980 5105 ft 232 kts 269°
2026-05-08 00:31 30.09255 -95.53799 5010 ft 221 kts 262°
2026-05-08 00:31 30.08850 -95.55487 5016 ft 218 kts 242°
2026-05-08 00:32 30.08010 -95.56843 5017 ft 197 kts 224°
2026-05-08 00:32 30.06920 -95.57761 4670 ft 194 kts 206°
2026-05-08 00:32 30.05648 -95.58224 4337 ft 192 kts 187°
2026-05-08 00:32 30.04333 -95.58220 4102 ft 189 kts 170°
2026-05-08 00:33 30.03096 -95.57769 3876 ft 187 kts 152°
2026-05-08 00:33 30.02042 -95.56929 3648 ft 183 kts 136°
2026-05-08 00:33 30.01259 -95.55794 3429 ft 181 kts 120°
2026-05-08 00:33 30.00796 -95.54443 3195 ft 182 kts 103°
2026-05-08 00:34 30.00686 -95.52990 2970 ft 182 kts 90°
2026-05-08 00:34 30.00693 -95.51545 2742 ft 179 kts 91°
2026-05-08 00:34 30.00697 -95.50153 2516 ft 163 kts 91°
2026-05-08 00:34 30.00701 -95.48920 2319 ft 146 kts 90°
2026-05-08 00:35 30.00703 -95.47776 2129 ft 138 kts 90°
2026-05-08 00:35 30.00705 -95.46698 1960 ft 135 kts 90°
2026-05-08 00:35 30.00705 -95.45622 1781 ft 134 kts 89°
2026-05-08 00:35 30.00705 -95.44536 1591 ft 135 kts 89°
2026-05-08 00:36 30.00704 -95.43451 1408 ft 135 kts 89°
2026-05-08 00:36 30.00705 -95.42361 1224 ft 135 kts 88°
2026-05-08 00:36 30.00706 -95.41266 1048 ft 137 kts 89°
2026-05-08 00:36 30.00711 -95.40174 824 ft 140 kts 88°
2026-05-08 00:37 30.00715 -95.39026 665 ft 145 kts 89°
2026-05-08 00:37 30.00709 -95.37857 525 ft 146 kts 86°
2026-05-08 00:37 30.00706 -95.36688 293 ft 146 kts 86°
2026-05-08 00:38 30.00721 -95.34626 107 ft 72 kts 90°
2026-05-08 00:38 30.00718 -95.34315 106 ft 30 kts 89°
2026-05-08 00:38 30.00721 -95.34041 107 ft 40 kts 89°
2026-05-08 00:38 30.00717 -95.33688 107 ft 48 kts 95°
2026-05-08 00:39 30.00607 -95.33366 106 ft 38 kts 121°
2026-05-08 00:39 30.00489 -95.33115 106 ft 25 kts 115°
2026-05-08 00:39 30.00398 -95.32961 107 ft 23 kts 128°
2026-05-08 00:39 30.00295 -95.32820 107 ft 23 kts 130°
2026-05-08 00:40 30.00180 -95.32663 106 ft 30 kts 130°
2026-05-08 00:40 30.00016 -95.32541 107 ft 30 kts 177°
2026-05-08 00:40 29.99805 -95.32540 107 ft 32 kts 180°
2026-05-08 00:40 29.99586 -95.32539 107 ft 31 kts 180°
2026-05-08 00:41 29.99449 -95.32539 106 ft 9 kts 180°
2026-05-08 00:41 29.99442 -95.32539 106 ft 0 kts 180°
2026-05-08 00:44 29.99400 -95.32539 106 ft 14 kts 180°
2026-05-08 00:44 29.99295 -95.32539 106 ft 15 kts 181°
2026-05-08 00:45 29.99193 -95.32539 107 ft 17 kts 180°
2026-05-08 00:45 29.99094 -95.32581 107 ft 15 kts 248°
2026-05-08 00:45 29.99088 -95.32703 107 ft 15 kts 269°
2026-05-08 00:45 29.99091 -95.32846 107 ft 21 kts 271°
2026-05-08 00:46 29.99081 -95.33010 107 ft 18 kts 236°
2026-05-08 00:46 29.99009 -95.33026 107 ft 9 kts 179°
2026-05-08 00:46 29.98922 -95.33025 107 ft 15 kts 180°
2026-05-08 00:46 29.98819 -95.33026 107 ft 14 kts 180°
2026-05-08 00:47 29.98725 -95.33026 107 ft 13 kts 180°
2026-05-08 00:47 29.98637 -95.33026 107 ft 12 kts 180°
2026-05-08 00:47 29.98559 -95.33026 107 ft 11 kts 179°
2026-05-08 00:47 29.98467 -95.33026 107 ft 14 kts 180°
2026-05-08 00:48 29.98373 -95.33026 107 ft 13 kts 180°
2026-05-08 00:48 29.98303 -95.33059 107 ft 10 kts 253°
2026-05-08 00:48 29.98299 -95.33139 107 ft 10 kts 268°
2026-05-08 00:48 29.98300 -95.33216 107 ft 9 kts 272°
2026-05-08 00:49 29.98301 -95.33292 107 ft 12 kts 269°
2026-05-08 00:49 29.98300 -95.33416 107 ft 16 kts 270°
2026-05-08 00:49 29.98302 -95.33550 107 ft 20 kts 275°
2026-05-08 00:49 29.98316 -95.33730 107 ft 23 kts 274°
2026-05-08 00:50 29.98319 -95.33915 107 ft 23 kts 271°
2026-05-08 00:50 29.98366 -95.34081 107 ft 22 kts 297°
2026-05-08 00:50 29.98376 -95.34245 107 ft 21 kts 272°
2026-05-08 00:50 29.98377 -95.34412 107 ft 21 kts 270°
2026-05-08 00:51 29.98377 -95.34437 107 ft 8 kts 269°
2026-05-08 00:51 29.98378 -95.34382 107 ft 0 kts 270°
2026-05-08 00:51 29.98377 -95.34394 107 ft 6 kts 264°
2026-05-08 00:52 29.98337 -95.34483 106 ft 19 kts 240°
2026-05-08 00:52 29.98324 -95.34672 107 ft 27 kts 270°
2026-05-08 00:52 29.98325 -95.34888 107 ft 26 kts 270°
2026-05-08 00:52 29.98328 -95.35048 107 ft 13 kts 291°
2026-05-08 00:53 29.98403 -95.35097 107 ft 13 kts 339°
2026-05-08 00:53 29.98433 -95.35111 107 ft 0 kts 338°
2026-05-08 00:53 29.98434 -95.35112 107 ft 2 kts 338°
2026-05-08 00:54 29.98481 -95.35130 107 ft 9 kts 354°
2026-05-08 00:54 29.98514 -95.35130 107 ft 3 kts 359°
2026-05-08 00:54 29.98528 -95.35130 107 ft 1 kts 359°
2026-05-08 00:54 29.98531 -95.35130 107 ft 0 kts 360°